This is the latest recevied weather packets stored in our database for station/object DL2GFH-3. If no packets are shown the sender has not sent any weather packets the latest 1 day(s).
| Time | Temp. | Humidity | Pressure | Rain* | Wind** | Luminosity | Snow |
|---|---|---|---|---|---|---|---|
| 1777989452 | 21.11° C | 34% | 1008.5 hPa | - | 0 m/s | - | - |
| 1777988547 | 21.11° C | 34% | 1008.5 hPa | - | 0 m/s | - | - |
| 1777987641 | 21.11° C | 35% | 1008.6 hPa | - | 0 m/s | - | - |
| 1777986736 | 21.11° C | 35% | 1008.7 hPa | - | 0 m/s | - | - |
| 1777985830 | 20.56° C | 35% | 1008.8 hPa | - | 0 m/s | - | - |
| 1777984925 | 20.56° C | 35% | 1008.9 hPa | - | 0 m/s | - | - |
| 1777984020 | 20.56° C | 35% | 1009.2 hPa | - | 0 m/s | - | - |
| 1777983114 | 20° C | 35% | 1009.4 hPa | - | 0 m/s | - | - |
| 1777982209 | 20° C | 35% | 1009.4 hPa | - | 0 m/s | - | - |
| 1777981303 | 20° C | 35% | 1009.4 hPa | - | 0 m/s | - | - |
| 1777980398 | 20° C | 35% | 1009.4 hPa | - | 0 m/s | - | - |
| 1777979492 | 20° C | 35% | 1009.3 hPa | - | 0 m/s | - | - |
| 1777978587 | 20° C | 35% | 1009.3 hPa | - | 0 m/s | - | - |
| 1777977682 | 20° C | 35% | 1009.4 hPa | - | 0 m/s | - | - |
| 1777976776 | 20° C | 35% | 1009.4 hPa | - | 0 m/s | - | - |
| 1777975871 | 20° C | 35% | 1009.5 hPa | - | 0 m/s | - | - |
| 1777974965 | 20° C | 34% | 1009.6 hPa | - | 0 m/s | - | - |
| 1777974060 | 20° C | 34% | 1009.7 hPa | - | 0 m/s | - | - |
| 1777973155 | 20.56° C | 34% | 1009.8 hPa | - | 0 m/s | - | - |
| 1777972249 | 20.56° C | 33% | 1009.9 hPa | - | 0 m/s | - | - |
| 1777971344 | 21.11° C | 32% | 1009.8 hPa | - | 0 m/s | - | - |
| 1777970438 | 21.11° C | 31% | 1009.7 hPa | - | 0 m/s | - | - |
| 1777969533 | 21.67° C | 30% | 1009.7 hPa | - | 0 m/s | - | - |
| 1777968627 | 22.22° C | 30% | 1009.6 hPa | - | 0 m/s | - | - |
| 1777967722 | 22.78° C | 29% | 1009.7 hPa | - | 0 m/s | - | - |
* Rain since midnight (hover to see other rain measurements)
** Current wind speed in m/s (hover to see current wind gust speed)